カタログに戻る

TITAN 3C TRANSTAGE DEB

LostHEO
NORAD 26783·DEBRIS·🇺🇸 United States

打ち上げ Dec 21, 1965 から Cape Canaveral Space Force Station

Loading…

次のパス (今後24時間)

TLE

古いSource: Space-Track

元期: Mar 18, 2026, 16:34 UTC

1 26783U 65108BB  26077.69055036 -.00000070  00000-0  00000-0 0  9990
2 26783  27.0621 207.1232 6594658 193.2828 349.5036  2.68257636 50975

AllMySatでTITAN 3C TRANSTAGE DEBをリアルタイム追跡

Download on the App Store